AO-07 1 07530U 74089B 18172.80251531 -.00000032 00000-0 82195-4 0 9992 2 07530 101.6870 140.0535 0011950 328.6590 91.4022 12.53633066995171 UO-11 1 14781U 84021B 18172.58846236 .00000043 00000-0 11442-4 0 9990 2 14781 097.6486 208.6173 0009974 072.4018 287.8285 14.83012066824095 LO-19 1 20442U 90005G 18172.82124870 .00000003 00000-0 17321-4 0 9998 2 20442 98.6102 111.2844 0012573 132.6241 227.6005 14.32898362484552 HUBBLE 1 20580U 90037B 18172.22523948 .00000403 00000-0 13674-4 0 9990 2 20580 028.4698 088.4111 0002755 179.5029 312.1719 15.09053767345996 MET-2/21 1 22782U 93055A 18172.29454392 .00000056 00000-0 36829-4 0 9993 2 22782 082.5503 090.6745 0023490 113.7278 359.5746 13.83812506252470 AO-27 1 22825U 93061C 18172.62866018 .00000004 00000-0 19585-4 0 9990 2 22825 98.8626 148.8245 0008010 341.4848 18.6041 14.30032860290203 IO-26 1 22826U 93061D 18172.50454695 -.00000007 00000-0 15117-4 0 9993 2 22826 098.8567 148.7354 0008350 330.5304 029.5406 14.30364352290122 FO-29 1 24278U 96046B 18172.59314190 -.00000033 00000-0 -61518-6 0 9994 2 24278 098.5174 010.7428 0351412 099.4751 264.6284 13.53084038078587 NOAA-15 1 25338U 98030A 18172.61232563 .00000065 00000-0 46068-4 0 9997 2 25338 098.7688 189.0479 0009901 208.7618 151.3017 14.25860033045399 GO-32 1 25397U 98043D 18172.45929803 -.00000017 00000-0 11574-4 0 9990 2 25397 098.6499 112.8271 0001895 045.5704 314.5629 14.23647246036113 ISS 1 25544U 98067A 18172.51324919 .00001976 00000-0 36987-4 0 9993 2 25544 051.6417 357.1427 0002932 207.6702 181.7278 15.54208167119199 NO-44 1 26931U 01043C 18172.54984559 -.00000028 00000-0 21095-4 0 9999 2 26931 067.0502 218.1528 0007924 274.0035 086.0160 14.30508436873107 SO-50 1 27607U 02058C 18172.34664113 -.00000020 00000-0 18003-4 0 9993 2 27607 64.5560 77.3210 0065740 327.4770 32.2289 14.75458396833576 CO-55 1 27844U 03031E 18172.60189390 .00000046 00000-0 40305-4 0 9993 2 27844 098.6861 181.1933 0009874 006.6028 353.5278 14.22118678776789 CO-57 1 27848U 03031J 18172.56245767 .00000037 00000-0 36863-4 0 9997 2 27848 098.6946 181.5539 0009985 016.8850 343.2658 14.21722182776656 RS-22 1 27939U 03042A 18172.90141420 .00000059 00000-0 19011-4 0 9999 2 27939 97.9912 311.9138 0014083 130.1366 27.3638 14.66694407787504 NOAA-18 1 28654U 05018A 18172.56937956 -.00000032 00000-0 76277-5 0 9998 2 28654 099.1443 208.1119 0015416 114.0421 246.2365 14.12378625674306 CO-58 1 28895U 05043F 18172.37839683 .00000122 00000-0 32208-4 0 9994 2 28895 097.9096 323.6641 0018025 059.1516 301.1458 14.63555134674255 Falconsat-3 1 30776U 07006E 18172.56445046 .00001855 00000-0 55655-4 0 9998 2 30776 035.4348 238.8820 0002190 063.4479 296.6471 15.34557526624996 CO-65 1 32785U 08021C 18172.48562332 .00000197 00000-0 27031-4 0 9992 2 32785 097.5467 184.4588 0013853 030.6848 329.5176 14.88133146549743 AAUSAT2 1 32788U 08021F 18172.77539688 .00000281 00000-0 31109-4 0 9990 2 32788 97.5211 199.0904 0011250 341.3831 18.6977 14.94366276550869 DO-64 1 32789U 08021G 18172.23116796 .00001612 00000-0 11440-3 0 9997 2 32789 097.5116 226.9386 0010803 285.5754 074.4280 15.06097123552296 CO-66 1 32791U 08021J 18172.76867135 .00000235 00000-0 29361-4 0 9990 2 32791 97.5356 190.0976 0013604 10.7020 349.4486 14.90568710550194 RS-30 1 32953U 08025A 18172.86835043 .00000028 00000-0 12710-3 0 9997 2 32953 82.5027 9.7680 0018758 197.2607 162.7837 12.43083532457358 PRISM 1 33493U 09002B 18171.97999282 -.00000066 00000-0 -13671-6 0 9994 2 33493 98.1318 74.2172 0014769 309.3290 50.6620 14.96234789510918 NOAA-19 1 33591U 09005A 18172.53264651 .00000070 00000-0 63058-4 0 9999 2 33591 099.1419 150.6455 0013269 318.3149 041.7009 14.12287171482786 TISAT-1 1 36799U 10035E 18172.61306986 .00000312 00000-0 37774-4 0 9999 2 36799 098.1070 308.9457 0012206 187.5649 172.5386 14.90813936430618 JUGNU 1 37839U 11058B 18172.57771697 .00000304 00000-0 20405-4 0 9995 2 37839 019.9629 010.6267 0018938 295.3443 106.5748 14.12621664345881 SRMSAT 1 37841U 11058D 18172.05526084 .00000291 00000-0 14814-4 0 9991 2 37841 19.9731 63.0739 0011936 172.9530 322.4040 14.10608474345428 AO-71 1 37854U 11061E 18172.73320848 .00001434 00000-0 82028-4 0 9996 2 37854 101.7024 240.0276 0163570 60.0865 301.6481 15.05490045362515 HRBE 1 37855U 11061F 18172.73001123 .00001640 00000-0 90961-4 0 9993 2 37855 101.7155 237.5871 0176497 68.8698 293.1278 15.04471041362338 ALMASAT-1 1 38078U 12006B 18172.48306453 .00023944 38429-5 21446-3 0 9990 2 38078 069.4301 204.8679 0235911 099.8830 011.8482 15.41031570341318 HORYU-2 1 38340U 12025D 18172.61767932 .00000168 00000-0 32674-4 0 9999 2 38340 098.3655 194.4907 0011269 190.1974 169.9007 14.75564044317351 RS-40 1 38735U 12041C 18172.54246600 .00000018 00000-0 61870-4 0 9995 2 38735 082.4771 093.9052 0016183 308.3184 051.6440 12.42576485267549 BEESAT-3 1 39134U 13015E 18172.21560919 .00001203 00000-0 66314-4 0 9992 2 39134 064.8636 113.8782 0012472 214.5726 145.4592 15.19188572285134 BEESAT-2 1 39136U 13015G 18172.28123251 .00000880 00000-0 55305-4 0 9993 2 39136 64.8689 129.8720 0022290 236.4791 123.4206 15.16163278285217 ZACUBE-1 1 39417U 13066B 18172.63895346 .00000160 00000-0 26513-4 0 9991 2 39417 97.5865 201.0408 0060204 139.4787 221.0932 14.80943044247450 TRITON-1 1 39427U 13066M 18172.52723565 .00000185 00000-0 37882-4 0 9991 2 39427 097.6414 168.1669 0112599 245.1600 113.7864 14.67675702245028 GOMX-1 1 39430U 13066Q 18172.89815056 .00000189 00000-0 43742-4 0 9998 2 39430 97.6977 149.4321 0150519 316.1560 42.7771 14.59087763243831 LO-74 1 39440U 13066AA 18172.61590825 .00000178 00000-0 31781-4 0 9991 2 39440 097.6007 187.5901 0080506 180.0348 180.0871 14.75680515245373 AO-73 1 39444U 13066AE 18172.56502840 .00000242 00000-0 36188-4 0 9997 2 39444 097.5874 202.5015 0059433 135.1520 225.4519 14.81724321245712 SPROUT 1 39770U 14029E 18172.83337571 .00000510 00000-0 63307-4 0 9997 2 39770 97.8777 273.8404 0008763 184.6662 175.4460 14.86863650221052 DUCHIFAT-1 1 40021U 14033M 18172.35554332 .00000243 00000-0 30851-4 0 9997 2 40021 097.9162 091.0823 0013307 158.3087 201.8696 14.90318717217577 NANOSATCBR1 1 40024U 14033Q 18172.73455168 .00000272 00000-0 34433-4 0 9991 2 40024 97.9096 89.6963 0012598 159.1928 200.9804 14.89580511217558 EO-79 1 40025U 14033R 18172.58349423 .00000262 00000-0 34080-4 0 9998 2 40025 097.9054 087.9733 0012715 164.2014 195.9601 14.88723615216935 DTUSAT-2 1 40030U 14033W 18172.75133692 .00000204 00000-0 28043-4 0 9990 2 40030 97.9001 86.8308 0012305 158.3741 201.7998 14.88331413217415 EO-80 1 40032U 14033Y 18172.74222772 .00000200 00000-0 27697-4 0 9999 2 40032 97.9008 86.8244 0012257 158.9590 201.2133 14.88268681217408 ANTELSAT 1 40034U 14033AA 18172.88850256 .00000172 00000-0 33082-4 0 9993 2 40034 97.8107 49.3540 0058672 181.5162 178.5879 14.73931291215375 VELOX-1 1 40057U 14034E 18172.77878329 -.00000486 00000-0 -60558-4 0 9996 2 40057 98.2044 283.9052 0009859 319.6553 40.3929 14.77434382214329 DAURIA DX 1 1 40071U 14037C 18172.81028624 .00000107 00000-0 21255-4 0 9994 2 40071 98.3766 304.3779 0007485 313.6427 46.4173 14.81165249213682 UKUBE-1 1 40074U 14037F 18172.60229418 .00000247 00000-0 36958-4 0 9999 2 40074 098.3887 310.0825 0003629 313.1610 046.9291 14.83809603213957 HODOYOSHI-1 1 40299U 14070B 18172.73999484 .00000637 00000-0 30125-4 0 9999 2 40299 97.3768 254.4316 0011606 231.1106 287.2629 15.22914629201177 CHUBUSAT-1 1 40300U 14070C 18172.83313595 .00000557 00000-0 27678-4 0 9996 2 40300 97.3632 250.4289 0018664 244.7666 248.0295 15.21586669200987 QSAT-EOS 1 40301U 14070D 18172.72929749 .00001505 00000-0 63131-4 0 9997 2 40301 97.3590 251.6392 0025034 234.6508 282.6604 15.24776941201112 FIREBIRD FU3 1 40377U 15003B 18172.60488189 .00001136 00000-0 50549-4 0 9991 2 40377 099.0867 075.2296 0130413 215.6441 143.6027 15.17252475186982 FIREBIRD FU4 1 40378U 15003C 18172.85750565 .00001108 00000-0 49380-4 0 9999 2 40378 99.0870 75.5902 0130646 214.6827 144.5832 15.17262137187036 GRIFEX 1 40379U 15003D 18172.70294067 .00000811 00000-0 39991-4 0 9991 2 40379 99.0896 71.5265 0137455 227.9961 130.9496 15.14362990186785 NO-84 1 40654U 15025D 18172.19971513 .00012400 00000-0 19552-3 0 03320 2 40654 054.9919 018.1944 0160974 119.1910 242.5308 15.40667422056466 NO-83 1 40655U 15025E 18172.36991538 .00033043 00000-0 33662-3 0 03828 2 40655 054.9773 320.0527 0109060 152.7277 207.9511 15.57641965056930 DEORBITSAIL 1 40719U 15032E 18172.65732748 .00000357 00000-0 58536-4 0 9999 2 40719 97.9448 66.1013 0017555 37.4035 322.8393 14.76446981158831 NUDT-PHONESAT 1 40900U 15049B 18172.58055941 .00002052 00000-0 94509-4 0 9998 2 40900 097.4406 180.7815 0014043 021.8133 338.3698 15.21350239152587 XW-2A 1 40903U 15049E 18172.85364135 .00001858 00000-0 47756-4 0 9994 2 40903 97.3836 207.7554 0014640 20.8673 339.3168 15.40526703154528 XW-2C 1 40906U 15049H 18172.80902358 .00000594 00000-0 35077-4 0 9996 2 40906 97.4594 176.2155 0015586 20.3408 339.8442 15.15205020152190 XW-2D 1 40907U 15049J 18172.82704803 .00000641 00000-0 37395-4 0 9992 2 40907 97.4568 175.9296 0014881 18.4687 341.7083 15.15357202152203 LILACSAT-2 1 40908U 15049K 18172.57483523 .00000335 00000-0 22278-4 0 9992 2 40908 097.4681 175.0352 0016571 020.3560 339.8329 15.13520142152039 XW-2F 1 40910U 15049M 18172.83798066 .00000979 00000-0 53486-4 0 9994 2 40910 97.4569 177.2637 0015457 13.9274 346.2383 15.16556200152151 XW-2B 1 40911U 15049N 18172.84472678 .00000635 00000-0 37136-4 0 9997 2 40911 97.4604 176.4865 0014808 19.0007 341.1774 15.15300876152104 DCBB 1 40912U 15049P 18172.57311102 .00001061 00000-0 54185-4 0 9999 2 40912 097.4502 179.8384 0015616 002.3805 115.5407 15.18775304152330 TW-1C 1 40926U 15051B 18172.79206935 .00008407 00000-0 15622-3 0 9991 2 40926 97.1821 215.1130 0007711 256.5271 193.6167 15.49128084154025 TW-1A 1 40928U 15051D 18172.82228763 .00002473 00000-0 66598-4 0 9996 2 40928 97.1846 206.7190 0010337 311.3302 134.3422 15.38740885153492 IO-86 1 40931U 15052B 18172.38124582 .00000637 00000-0 -39861-6 0 9992 2 40931 5.9990 120.2077 0013548 64.9707 295.1853 14.76577781147620 LQSat 1 40958U 15057A 18172.78455999 .00000018 00000-0 10487-4 0 9992 2 40958 97.9396 245.8247 0017542 326.2443 33.7640 14.73035181145529 AO-85 1 40967U 15058D 18172.33373748 .00000137 00000-0 32557-4 0 03645 2 40967 064.7762 178.6841 0207473 312.3881 045.9832 14.75726227054265 ATHENOXAT-1 1 41168U 15077C 18172.56821694 .00001571 00000-0 49071-4 0 9999 2 41168 014.9883 348.2427 0012049 099.7477 305.5065 15.12794145139044 ChubuSat-2 1 41338U 16012B 18172.57267096 .00000304 00000-0 17019-4 0 9999 2 41338 031.0034 285.7866 0013700 116.6093 243.5947 14.99987591128491 ChubuSat-3 1 41339U 16012C 18172.71894771 .00000301 00000-0 16759-4 0 9999 2 41339 31.0115 283.4433 0013427 125.3979 234.7921 15.00174937128504 Horyu-4 1 41340U 16012D 18172.64251694 .00000435 00000-0 26514-4 0 9992 2 41340 31.0052 278.6004 0013907 137.4793 222.6922 15.00996051128569 OUFTI-1 1 41458U 16025C 18172.56110244 .00001894 00000-0 10131-3 0 9999 2 41458 098.1372 235.6455 0171366 132.7346 228.8453 15.04685895118108 e-st@r-II 1 41459U 16025D 18172.43574265 .00002059 00000-0 11025-3 0 9990 2 41459 098.1379 235.3500 0172301 133.9467 227.6103 15.04418253118067 AAUSAT4 1 41460U 16025E 18172.80901467 .00002282 00000-0 12068-3 0 9997 2 41460 98.1261 236.2505 0163052 128.5652 233.0259 15.05849146118189 LO-87 1 41557U 16033B 18172.82194504 .00001317 00000-0 50814-4 0 9991 2 41557 97.4377 257.0295 0015578 142.0248 218.2093 15.28017408114869 NuSat2 1 41558U 16033C 18172.82233905 .00001295 00000-0 49752-4 0 9995 2 41558 97.4392 257.1405 0014450 135.1720 225.0690 15.28206999114850 Lapan A3 1 41603U 16040E 18172.75952691 .00000267 00000-0 15724-4 0 9996 2 41603 97.4104 234.1999 0012167 220.2728 278.7373 15.19572060110777 Swayam 1 41607U 16040J 18172.72314015 .00001401 00000-0 63861-4 0 9995 2 41607 97.4127 235.6478 0012736 216.7323 143.3041 15.22248656110793 Pratham 1 41783U 16059A 18172.58314256 .00000050 00000-0 18986-4 0 9998 2 41783 098.1171 234.0723 0034988 082.3899 278.1275 14.62927895092606 AlSat 1N 1 41789U 16059G 18172.74180754 .00000058 00000-0 20144-4 0 9993 2 41789 98.1186 235.4602 0029716 74.0988 286.3479 14.64160408 92685 ScatSat 1 41790U 16059H 18172.58874550 -.00000005 00000-0 98299-5 0 9991 2 41790 098.2591 220.2997 0019601 078.8482 281.4915 14.50859400091828 TY-1 1 41844U 16066D 18172.87369510 .00001561 00000-0 68632-4 0 9990 2 41844 97.4053 179.7746 0016549 26.7769 91.1185 15.23272700 89599 Pegasus-1 1 41846U 16066F 18172.01655328 .00000248 00000-0 49167-4 0 9996 2 41846 098.7534 200.5537 0367287 235.4836 121.1164 14.37346125084450 CAS-2T 1 41847U 16066G 18172.56484080 .00000056 00000-0 19751-4 0 9995 2 41847 098.7494 201.5588 0365357 231.3703 125.4253 14.37899374084957 TO-89 1 41932U 98067KU 18172.55128695 .00030035 00000-0 18731-3 0 9993 2 41932 051.6316 318.3481 0003774 230.3580 129.7087 15.76629619081457 AOBA-V3LOX3 1 41935U 98067KX 18172.74557585 .00045191 00000-0 23114-3 0 9991 2 41935 51.6353 312.8346 0003706 245.0804 114.9813 15.80843098 81645 EO-88 1 42017U 17008BX 18172.42854022 .00001386 00000-0 59387-4 0 9990 2 42017 097.4478 237.4607 0006740 020.6612 339.4897 15.24459449074717 HAVELSAT 1 42700U 98067LH 18172.66367646 .00025551 00000-0 19985-3 0 9999 2 42700 51.6354 331.8821 0004005 263.1886 96.8656 15.71439781 62721 SOMP2 1 42701U 98067LJ 18172.84530143 .00024570 00000-0 20065-3 0 9995 2 42701 51.6362 332.3504 0003863 261.0780 98.9781 15.70429390 62722 PHOENIX 1 42706U 98067LP 18172.69201562 .00017884 00000-0 15422-3 0 9994 2 42706 51.6360 333.5854 0001394 200.5131 159.5810 15.69344262 62618 X-CubeSat 1 42707U 98067LQ 18172.70652490 .00027560 00000-0 21022-3 0 9992 2 42707 51.6322 331.3491 0001642 215.0321 145.0570 15.71997865 62639 qbee 1 42708U 98067LR 18172.84680456 .00027648 00000-0 21869-3 0 9997 2 42708 51.6366 331.6011 0001511 219.1489 140.9400 15.71129827 62602 ZA-AeroSat 1 42713U 98067LU 18172.85208093 .00019447 00000-0 17640-3 0 9997 2 42713 51.6354 335.3935 0002314 187.5392 172.5570 15.68033927 62266 LINK 1 42714U 98067LV 18172.81563654 .00062712 00000-0 31748-3 0 9999 2 42714 51.6248 323.6966 0002577 244.0398 116.0339 15.80932593 62525 UPSat 1 42716U 98067LX 18172.61977034 .00040394 00000-0 25406-3 0 9996 2 42716 051.6332 327.7749 0003180 261.1753 098.8887 15.76285832062472 SpaceCube 1 42717U 98067LY 18172.80961822 .00025303 00000-0 20133-3 0 9991 2 42717 51.6339 332.0784 0002800 260.1076 99.9605 15.71039364 61676 Hoopoe 1 42718U 98067LZ 18172.70739777 .00035021 00000-0 24627-3 0 9993 2 42718 51.6356 329.8964 0002868 260.7352 99.3323 15.73780699 61696 Challenger 1 42721U 98067MA 18172.82303184 .00127671 00000-0 44105-3 0 9995 2 42721 51.6271 318.4545 0006737 281.1753 78.8494 15.88605989 61556 NJUST-1 1 42722U 98067MB 18172.72419675 .00016849 00000-0 15967-3 0 9996 2 42722 51.6363 337.5614 0005145 244.1989 115.8476 15.67056251 61292 UNSW-EC0 1 42723U 98067MC 18172.70597436 .00037241 00000-0 25313-3 0 9992 2 42723 51.6383 329.9216 0004708 248.5632 111.4865 15.74533636 61373 DUTHsat 1 42724U 98067MD 18172.79282921 .00094225 00000-0 37498-3 0 9994 2 42724 51.6317 320.5881 0005817 276.6024 83.4318 15.85857666 61426 LO-90 1 42725U 98067ME 18172.82253027 .00020676 00000-0 17572-3 0 9994 2 42725 51.6365 334.4593 0004257 246.3544 113.7006 15.69579560 61249 nSIGHT1 1 42726U 98067MF 18172.72934807 .00006160 00000-0 76280-4 0 9990 2 42726 51.6394 344.4115 0004793 245.2325 114.8170 15.61583778 61111 SNUSAT 1B 1 42727U 98067MG 18172.70690738 .00022182 00000-0 18852-3 0 9993 2 42727 51.6342 335.1328 0005929 213.2201 146.8425 15.69520742 61194 QBITO 1 42728U 98067MH 18172.70664149 .00027218 00000-0 21370-3 0 9995 2 42728 51.6381 332.9815 0002580 246.0322 114.0406 15.71314617 61069 Aalto-2 1 42729U 98067MJ 18172.68500569 .00027507 00000-0 21345-3 0 9991 2 42729 51.6354 332.7753 0002546 245.4469 114.6264 15.71588639 61072 SUSat 1 42730U 98067MK 18172.80858411 .00024173 00000-0 20052-3 0 9999 2 42730 51.6357 333.5996 0002599 245.7615 114.3111 15.70065623 61068 i-INSPIRE II 1 42731U 98067ML 18171.99936785 .00037791 00000-0 25075-3 0 9990 2 42731 51.6350 332.6233 0005093 206.5854 153.4884 15.75081358 61056 PolyITAN-2-SAU 1 42732U 98067MM 18172.83966222 .00028148 00000-0 21648-3 0 9992 2 42732 51.6352 331.5259 0005248 202.4807 157.5962 15.71777302 61149 ExAlta-1 1 42734U 98067MP 18172.67791525 .00041949 00000-0 26884-3 0 9999 2 42734 51.6298 328.8727 0005938 234.7328 125.3117 15.75823756 61112 Aoxiang-1 1 42735U 98067MQ 18172.87979051 .00017608 00000-0 16442-3 0 9998 2 42735 51.6357 336.3264 0005627 242.6261 117.4163 15.67383190 62453 BeEagleSat 1 42736U 98067MR 18172.61353282 .00020410 00000-0 17881-3 0 9996 2 42736 51.6353 336.0365 0005398 242.1118 117.9332 15.68841346 61129 CAS-4B 1 42759U 17034B 18172.82673193 .00000128 00000-0 21472-4 0 9991 2 42759 43.0193 57.7959 0008119 140.0122 263.1720 15.09305041 56156 CAS-4A 1 42761U 17034D 18172.80756100 .00000280 00000-0 30738-4 0 9996 2 42761 43.0200 57.6701 0008542 142.2223 257.4133 15.09382373 56144 UCLSat 1 42765U 17036A 18172.61441017 .00001183 00000-0 54959-4 0 9993 2 42765 097.4005 232.3919 0013415 065.3369 294.9263 15.21863784055972 NIUSat 1 42766U 17036B 18172.60908660 .00000968 00000-0 47421-4 0 9991 2 42766 097.4006 231.6532 0017339 052.9072 307.3745 15.20404189055208 LituanicaSAT 2 1 42768U 17036D 18172.60731699 .00001884 00000-0 86817-4 0 9999 2 42768 097.4019 231.9831 0017117 055.5468 304.7382 15.21393710055230 Aalto 1 1 42775U 17036L 18172.24421480 .00000731 00000-0 36252-4 0 9999 2 42775 097.3998 231.5095 0015581 054.8945 305.3748 15.20757950055115 URSA MAIOR 1 42776U 17036M 18172.23058274 .00000828 00000-0 40553-4 0 9992 2 42776 097.4005 231.5479 0015443 055.1660 305.1026 15.20836389055118 Max Valier Sat 1 42778U 17036P 18172.71915275 .00000969 00000-0 46279-4 0 9997 2 42778 97.4029 232.3570 0014123 58.8878 301.3741 15.21320837 55199 Pegasus 1 42784U 17036V 18172.38936818 .00001106 00000-0 51883-4 0 9994 2 42784 097.4008 232.0957 0013929 065.8428 294.4262 15.21672442055159 NUDATSat 1 42787U 17036Y 18172.83194955 .00001560 00000-0 70700-4 0 9998 2 42787 97.4015 232.7366 0013441 64.4610 295.8015 15.22253595 55075 SUCHAI 1 1 42788U 17036Z 18172.21438915 .00001313 00000-0 60548-4 0 9993 2 42788 97.4010 232.0233 0013553 66.3918 293.8740 15.21942125 55204 SKCUBE 1 42789U 17036AA 18172.60840105 .00001224 00000-0 56729-4 0 9992 2 42789 097.4007 232.4054 0013368 065.2297 295.0329 15.21905082055183 VZLUSAT 1 1 42790U 17036AB 18172.22959324 .00001591 00000-0 72051-4 0 9999 2 42790 097.4012 232.1512 0013044 066.7658 293.4950 15.22272297055138 VENTA 1 1 42791U 17036AC 18172.19529893 .00001156 00000-0 53644-4 0 9994 2 42791 097.4006 232.0389 0013022 067.2255 293.0355 15.21954646055115 Robusta 1B 1 42792U 17036AD 18172.11646040 .00001261 00000-0 58117-4 0 9998 2 42792 097.4006 231.9845 0012974 067.7863 292.4748 15.22045877055124 D-SAT 1 42794U 17036AF 18172.60738863 .00000130 00000-0 17155-4 0 9990 2 42794 097.5911 227.0980 0125439 267.5180 091.1673 14.90874153054380 BIRD-J 1 42820U 98067MU 18172.68642389 .00020513 00000-0 18635-3 0 9998 2 42820 51.6353 338.0320 0002994 181.4258 178.6730 15.67955671 54567 BIRD-G 1 42821U 98067MV 18172.67619279 .00019001 00000-0 17683-3 0 9992 2 42821 51.6354 338.7163 0002988 182.3883 177.7099 15.67416152 54539 BIRD-M 1 42822U 98067MW 18172.59330966 .00019272 00000-0 17747-3 0 9998 2 42822 051.6356 338.9161 0002983 185.4967 174.5997 15.67666253054546 BIRD-B 1 42823U 98067MX 18172.46157204 .00019269 00000-0 17674-3 0 9992 2 42823 051.6362 339.5537 0005215 203.7848 156.2909 15.67756027054528 BIRD-N 1 42824U 98067MY 18172.67755857 .00019687 00000-0 18192-3 0 9994 2 42824 51.6366 338.7631 0005081 204.8732 155.2020 15.67556859 54528 TechnoSat 1 42829U 17042E 18172.79379164 .00000156 00000-0 21250-4 0 9990 2 42829 97.5965 74.9742 0014176 177.9902 182.1376 14.90827454 51014 TOMSK-TPU 120 1 42910U 98067MZ 18172.47701160 .00014234 00000-0 15078-3 0 9999 2 42910 051.6357 344.1302 0005806 221.6692 138.3861 15.64399587048053 TANYUSHA 1 1 42911U 98067NA 18172.84073404 .00016184 00000-0 16380-3 0 9997 2 42911 51.6364 341.3460 0005458 218.9188 141.1415 15.65437792 48103 TANYUSHA 2 1 42912U 98067NB 18172.84483077 .00015001 00000-0 15576-3 0 9992 2 42912 51.6378 342.0992 0004817 229.5045 130.5530 15.64861620 48116 SFERA 2 1 42913U 98067NC 18172.56994113 .00036915 00000-0 26866-3 0 9991 2 42913 051.6337 335.7038 0003985 242.5712 117.4881 15.72945182048177 TNS 0-2 1 42914U 98067ND 18172.58682448 .00013573 00000-0 14517-3 0 9994 2 42914 051.6370 344.1556 0004873 222.3596 137.7023 15.64204956048033 QIKCOM-1 1 42983U 98067NF 18172.83093327 .00002829 00000-0 46345-4 0 9997 2 42983 51.6405 353.3385 0004072 207.9992 152.0781 15.56280772 36949 AO-91 1 43017U 17073E 18172.61300693 .00000319 00000-0 31251-4 0 9999 2 43017 097.7074 103.5598 0258240 257.1729 100.0518 14.78089459031763 EcAMSat 1 43019U 98067NG 18172.71142118 .00004660 00000-0 69744-4 0 9991 2 43019 51.6409 353.2926 0005072 183.6435 176.4520 15.57114551119256 PICSAT 1 43132U 18004X 18172.11835075 .00001234 00000-0 56044-4 0 9998 2 43132 97.5336 234.8084 0011727 86.3388 273.9189 15.22655250 24313 AO-92 1 43137U 18004AC 18172.23809075 .00000973 00000-0 44775-4 0 9994 2 43137 097.5333 234.9504 0011247 087.5550 272.6974 15.22721147024333 TianYi 2 1 43155U 18008A 18172.86461215 .00000859 00000-0 55712-4 0 9993 2 43155 97.5240 247.2614 0019450 126.3131 325.3352 15.10570222 23192 Zhou Enlai 1 43156U 18008B 18172.85450220 .00000571 00000-0 38919-4 0 9998 2 43156 97.5286 247.2150 0016672 122.4759 329.9620 15.10027693 23180 TianYi 6 1 43158U 18008D 18172.82176662 .00001128 00000-0 73710-4 0 9999 2 43158 97.5248 247.0377 0015017 118.8161 1.5193 15.09736444 23151 S-Net G 1 43186U 18014G 18172.70229672 .00000552 00000-0 53698-4 0 9997 2 43186 97.7255 81.1205 0012310 130.6102 229.6192 14.96460428 20991 S-Net H 1 43187U 18014H 18172.70221720 .00000554 00000-0 53906-4 0 9998 2 43187 97.7253 81.1175 0012303 130.5569 229.6725 14.96461313 20990 S-Net J 1 43188U 18014J 18172.70213755 .00000554 00000-0 53910-4 0 9993 2 43188 97.7255 81.1219 0012302 130.6696 229.5597 14.96462071 20991 S-Net K 1 43189U 18014K 18172.70224276 .00000553 00000-0 53800-4 0 9991 2 43189 97.7253 81.1166 0012301 130.5713 229.6581 14.96460936 19540 FMN 1 1 43192U 18015A 18172.90015571 .00002075 00000-0 91316-4 0 9999 2 43192 97.3575 301.6912 0018330 123.1646 237.1352 15.22823860 21235 Shaonian Xing 1 43199U 18015H 18172.61678785 .00001564 00000-0 67838-4 0 9990 2 43199 097.3344 301.2039 0018303 136.3543 223.9147 15.23692701021216 1KUNS-PF 1 43466U 98067NP 18172.75096310 .00012036 00000-0 17818-3 0 9993 2 43466 51.6427 355.5980 0002018 129.7190 325.1459 15.55722767 6412 UBAKUSAT 1 43467U 98067NQ 18172.75095968 .00009204 00000-0 13843-3 0 9999 2 43467 51.6422 355.6009 0004277 143.7932 310.3987 15.55623706 6415 Irazu 1 43468U 98067NR 18172.73149557 .00013654 00000-0 20001-3 0 9990 2 43468 51.6423 355.6596 0001585 118.6473 241.4679 15.55879178106394 /EX